Time,TemperatureF,DewpointF,PressureIn,WindDirection,WindDirectionDegrees,WindSpeedMPH,WindSpeedGustMPH,Humidity,HourlyPrecipIn,Conditions,Clouds,dailyrainin,SoftwareType,DateUTC
2013-03-21 00:02:00,40.0,13.0,30.08,NNW,348,6.0,10.0,32,0.00,,,0.00,,2013-03-21 05:02:00,
2013-03-21 00:12:00,40.0,13.0,30.08,NNW,348,6.0,10.0,32,0.00,,,0.00,,2013-03-21 05:12:00,
2013-03-21 00:22:00,40.0,13.0,30.08,North,355,0.0,10.0,33,0.00,,,0.00,,2013-03-21 05:22:00,
2013-03-21 00:32:00,39.0,12.0,30.08,North,360,1.0,6.0,33,0.00,,,0.00,,2013-03-21 05:32:00,
2013-03-21 00:43:00,39.0,12.0,30.08,North,360,1.0,6.0,33,0.00,,,0.00,,2013-03-21 05:43:00,
2013-03-21 00:52:00,39.0,14.0,30.08,NNW,334,0.0,6.0,35,0.00,,,0.00,,2013-03-21 05:52:00,
2013-03-21 01:02:00,38.0,15.0,30.08,North,355,1.0,5.0,39,0.00,,,0.00,,2013-03-21 06:02:00,
2013-03-21 01:12:00,38.0,15.0,30.08,North,355,1.0,5.0,39,0.00,,,0.00,,2013-03-21 06:12:00,
2013-03-21 01:22:00,38.0,16.0,30.07,North,9,1.0,8.0,40,0.00,,,0.00,,2013-03-21 06:22:00,
2013-03-21 01:32:00,37.0,16.0,30.07,North,5,1.0,5.0,42,0.00,,,0.00,,2013-03-21 06:32:00,
2013-03-21 01:42:00,37.0,16.0,30.07,North,5,1.0,5.0,42,0.00,,,0.00,,2013-03-21 06:42:00,
2013-03-21 01:52:00,36.0,17.0,30.07,North,360,1.0,7.0,45,0.00,,,0.00,,2013-03-21 06:52:00,
2013-03-21 02:02:00,36.0,18.0,30.07,NNE,20,1.0,5.0,47,0.00,,,0.00,,2013-03-21 07:02:00,
2013-03-21 02:12:00,36.0,18.0,30.07,NNE,20,1.0,5.0,47,0.00,,,0.00,,2013-03-21 07:12:00,
2013-03-21 02:22:00,35.0,18.0,30.08,NNE,15,0.0,6.0,49,0.00,,,0.00,,2013-03-21 07:22:00,
2013-03-21 02:32:00,35.0,19.0,30.08,North,360,0.0,3.0,51,0.00,,,0.00,,2013-03-21 07:32:00,
2013-03-21 02:42:00,35.0,19.0,30.08,North,360,0.0,3.0,51,0.00,,,0.00,,2013-03-21 07:42:00,
2013-03-21 02:52:00,35.0,20.0,30.08,NE,40,1.0,6.0,53,0.00,,,0.00,,2013-03-21 07:52:00,
2013-03-21 03:02:00,34.0,19.0,30.07,NE,38,2.0,5.0,54,0.00,,,0.00,,2013-03-21 08:02:00,
2013-03-21 03:13:00,34.0,20.0,30.07,NNE,31,1.0,7.0,56,0.00,,,0.00,,2013-03-21 08:13:00,
2013-03-21 03:22:00,34.0,20.0,30.07,NNE,31,1.0,7.0,56,0.00,,,0.00,,2013-03-21 08:22:00,
2013-03-21 03:33:00,34.0,20.0,30.07,North,355,3.0,7.0,57,0.00,,,0.00,,2013-03-21 08:33:00,
2013-03-21 03:42:00,34.0,20.0,30.07,North,355,3.0,7.0,57,0.00,,,0.00,,2013-03-21 08:42:00,
2013-03-21 03:52:00,33.0,20.0,30.07,NE,36,1.0,5.0,58,0.00,,,0.00,,2013-03-21 08:52:00,
2013-03-21 04:02:00,33.0,20.0,30.06,North,355,0.0,5.0,59,0.00,,,0.00,,2013-03-21 09:02:00,
2013-03-21 04:11:00,33.0,20.0,30.06,North,355,0.0,5.0,59,0.00,,,0.00,,2013-03-21 09:11:00,
2013-03-21 04:21:00,33.0,20.0,30.06,NE,45,2.0,6.0,58,0.00,,,0.00,,2013-03-21 09:21:00,
2013-03-21 04:33:00,33.0,19.0,30.06,North,5,1.0,5.0,57,0.00,,,0.00,,2013-03-21 09:33:00,
2013-03-21 04:43:00,33.0,19.0,30.06,North,5,1.0,5.0,57,0.00,,,0.00,,2013-03-21 09:43:00,
2013-03-21 04:53:00,33.0,19.0,30.06,NE,38,0.0,5.0,57,0.00,,,0.00,,2013-03-21 09:53:00,
2013-03-21 05:02:00,32.0,19.0,30.06,ENE,63,0.0,4.0,58,0.00,,,0.00,,2013-03-21 10:02:00,
2013-03-21 05:12:00,32.0,19.0,30.06,ENE,63,0.0,4.0,58,0.00,,,0.00,,2013-03-21 10:12:00,
2013-03-21 05:22:00,32.0,20.0,30.06,ENE,57,0.0,4.0,61,0.00,,,0.00,,2013-03-21 10:22:00,
2013-03-21 05:33:00,32.0,21.0,30.07,NE,51,0.0,0.0,63,0.00,,,0.00,,2013-03-21 10:33:00,
2013-03-21 05:42:00,32.0,21.0,30.07,NE,51,0.0,0.0,63,0.00,,,0.00,,2013-03-21 10:42:00,
2013-03-21 05:53:00,32.0,22.0,30.07,NE,51,0.0,0.0,65,0.00,,,0.00,,2013-03-21 10:53:00,
2013-03-21 06:03:00,32.0,22.0,30.08,NE,53,0.0,0.0,66,0.00,,,0.00,,2013-03-21 11:03:00,
2013-03-21 06:12:00,32.0,22.0,30.08,NE,53,0.0,0.0,66,0.00,,,0.00,,2013-03-21 11:12:00,
2013-03-21 06:22:00,31.0,22.0,30.08,NE,53,0.0,0.0,68,0.00,,,0.00,,2013-03-21 11:22:00,
2013-03-21 06:33:00,31.0,22.0,30.08,NE,53,0.0,0.0,69,0.00,,,0.00,,2013-03-21 11:33:00,
2013-03-21 06:43:00,31.0,22.0,30.08,NE,53,0.0,0.0,69,0.00,,,0.00,,2013-03-21 11:43:00,
2013-03-21 06:53:00,31.0,23.0,30.09,NE,53,0.0,0.0,71,0.00,,,0.00,,2013-03-21 11:53:00,
2013-03-21 07:02:00,31.0,23.0,30.09,NE,53,0.0,0.0,71,0.00,,,0.00,,2013-03-21 12:02:00,
2013-03-21 07:12:00,31.0,23.0,30.09,NE,53,0.0,0.0,71,0.00,,,0.00,,2013-03-21 12:12:00,
2013-03-21 07:22:00,31.0,22.0,30.09,ENE,66,0.0,0.0,70,0.00,,,0.00,,2013-03-21 12:22:00,
2013-03-21 07:32:00,31.0,22.0,30.09,ENE,67,0.0,0.0,69,0.00,,,0.00,,2013-03-21 12:32:00,
2013-03-21 07:42:00,31.0,22.0,30.09,ENE,67,0.0,0.0,69,0.00,,,0.00,,2013-03-21 12:42:00,
2013-03-21 07:53:00,31.0,22.0,30.09,ENE,66,0.0,0.0,69,0.00,,,0.00,,2013-03-21 12:53:00,
2013-03-21 08:02:00,32.0,22.0,30.10,ENE,67,0.0,0.0,66,0.00,,,0.00,,2013-03-21 13:02:00,
2013-03-21 08:12:00,32.0,22.0,30.10,ENE,67,0.0,0.0,66,0.00,,,0.00,,2013-03-21 13:12:00,
2013-03-21 08:22:00,33.0,22.0,30.10,East,90,0.0,3.0,64,0.00,,,0.00,,2013-03-21 13:22:00,
2013-03-21 08:32:00,34.0,22.0,30.09,East,90,2.0,6.0,60,0.00,,,0.00,,2013-03-21 13:32:00,
2013-03-21 08:42:00,34.0,22.0,30.09,East,90,2.0,6.0,60,0.00,,,0.00,,2013-03-21 13:42:00,
2013-03-21 08:52:00,34.0,21.0,30.09,ENE,71,2.0,6.0,59,0.00,,,0.00,,2013-03-21 13:52:00,
2013-03-21 09:02:00,35.0,20.0,30.09,ESE,106,4.0,9.0,53,0.00,,,0.00,,2013-03-21 14:02:00,
2013-03-21 09:12:00,35.0,19.0,30.08,ESE,108,0.0,11.0,51,0.00,,,0.00,,2013-03-21 14:12:00,
2013-03-21 09:22:00,35.0,19.0,30.08,ESE,108,0.0,11.0,51,0.00,,,0.00,,2013-03-21 14:22:00,
2013-03-21 09:32:00,36.0,17.0,30.09,North,5,1.0,6.0,46,0.00,,,0.00,,2013-03-21 14:32:00,
2013-03-21 09:42:00,36.0,17.0,30.09,North,5,1.0,6.0,46,0.00,,,0.00,,2013-03-21 14:42:00,
2013-03-21 09:52:00,36.0,16.0,30.09,East,92,3.0,9.0,44,0.00,,,0.00,,2013-03-21 14:52:00,
2013-03-21 10:03:00,37.0,16.0,30.10,East,83,3.0,11.0,42,0.00,,,0.00,,2013-03-21 15:03:00,
2013-03-21 10:12:00,37.0,16.0,30.10,East,83,3.0,11.0,42,0.00,,,0.00,,2013-03-21 15:12:00,
2013-03-21 10:22:00,37.0,16.0,30.10,ENE,71,1.0,7.0,41,0.00,,,0.00,,2013-03-21 15:22:00,
2013-03-21 10:33:00,37.0,15.0,30.09,NNE,13,3.0,10.0,40,0.00,,,0.00,,2013-03-21 15:33:00,
2013-03-21 10:42:00,37.0,15.0,30.09,NNE,13,3.0,10.0,40,0.00,,,0.00,,2013-03-21 15:42:00,
2013-03-21 10:53:00,37.0,15.0,30.09,NNE,13,3.0,10.0,40,0.00,,,0.00,,2013-03-21 15:53:00,
2013-03-21 11:03:00,38.0,15.0,30.09,NE,40,1.0,7.0,38,0.00,,,0.00,,2013-03-21 16:03:00,
2013-03-21 11:12:00,38.0,15.0,30.09,NE,40,1.0,7.0,38,0.00,,,0.00,,2013-03-21 16:12:00,
2013-03-21 11:23:00,38.0,13.0,30.08,ENE,69,0.0,8.0,36,0.00,,,0.00,,2013-03-21 16:23:00,
2013-03-21 11:33:00,39.0,14.0,30.09,North,10,4.0,7.0,36,0.00,,,0.00,,2013-03-21 16:33:00,
2013-03-21 11:42:00,39.0,14.0,30.09,North,10,4.0,7.0,36,0.00,,,0.00,,2013-03-21 16:42:00,
2013-03-21 11:53:00,39.0,14.0,30.08,East,101,2.0,6.0,36,0.00,,,0.00,,2013-03-21 16:53:00,
2013-03-21 12:02:00,40.0,14.0,30.08,NE,40,0.0,7.0,34,0.00,,,0.00,,2013-03-21 17:02:00,
2013-03-21 12:12:00,40.0,14.0,30.08,NE,40,0.0,7.0,34,0.00,,,0.00,,2013-03-21 17:12:00,
2013-03-21 12:23:00,40.0,13.0,30.08,NNE,33,2.0,5.0,33,0.00,,,0.00,,2013-03-21 17:23:00,
2013-03-21 12:32:00,41.0,15.0,30.08,ENE,68,0.0,6.0,35,0.00,,,0.00,,2013-03-21 17:32:00,
2013-03-21 12:42:00,41.0,15.0,30.08,ENE,68,0.0,6.0,35,0.00,,,0.00,,2013-03-21 17:42:00,
2013-03-21 12:53:00,41.0,15.0,30.07,North,350,2.0,6.0,34,0.00,,,0.00,,2013-03-21 17:53:00,
2013-03-21 13:02:00,42.0,14.0,30.06,NNW,327,1.0,6.0,32,0.00,,,0.00,,2013-03-21 18:02:00,
2013-03-21 13:12:00,42.0,14.0,30.06,NNW,327,1.0,6.0,32,0.00,,,0.00,,2013-03-21 18:12:00,
2013-03-21 13:23:00,43.0,14.0,30.05,NE,40,2.0,8.0,31,0.00,,,0.00,,2013-03-21 18:23:00,
2013-03-21 13:32:00,43.0,14.0,30.03,North,355,1.0,7.0,30,0.00,,,0.00,,2013-03-21 18:32:00,
2013-03-21 13:42:00,43.0,14.0,30.03,North,355,1.0,7.0,30,0.00,,,0.00,,2013-03-21 18:42:00,
2013-03-21 13:52:00,44.0,14.0,30.02,North,5,4.0,9.0,29,0.00,,,0.00,,2013-03-21 18:52:00,
2013-03-21 14:02:00,44.0,12.0,30.01,NNE,18,2.0,9.0,27,0.00,,,0.00,,2013-03-21 19:02:00,
2013-03-21 14:12:00,44.0,12.0,30.01,NNE,18,2.0,9.0,27,0.00,,,0.00,,2013-03-21 19:12:00,
2013-03-21 14:22:00,45.0,12.0,30.00,NE,54,4.0,9.0,26,0.00,,,0.00,,2013-03-21 19:22:00,
2013-03-21 14:32:00,46.0,13.0,29.98,NE,41,5.0,10.0,26,0.00,,,0.00,,2013-03-21 19:32:00,
2013-03-21 14:42:00,46.0,13.0,29.98,NE,41,5.0,10.0,26,0.00,,,0.00,,2013-03-21 19:42:00,
2013-03-21 14:53:00,45.0,13.0,29.97,East,80,3.0,11.0,27,0.00,,,0.00,,2013-03-21 19:53:00,
2013-03-21 15:02:00,45.0,14.0,29.96,NE,50,4.0,11.0,28,0.00,,,0.00,,2013-03-21 20:02:00,
2013-03-21 15:12:00,45.0,14.0,29.96,NE,50,4.0,11.0,28,0.00,,,0.00,,2013-03-21 20:12:00,
2013-03-21 15:22:00,45.0,15.0,29.95,ESE,107,0.0,8.0,29,0.00,,,0.00,,2013-03-21 20:22:00,
2013-03-21 15:33:00,46.0,13.0,29.94,ESE,102,5.0,11.0,26,0.00,,,0.00,,2013-03-21 20:33:00,
2013-03-21 15:42:00,46.0,13.0,29.94,ESE,102,5.0,11.0,26,0.00,,,0.00,,2013-03-21 20:42:00,
2013-03-21 15:53:00,46.0,14.0,29.94,SE,140,0.0,8.0,27,0.00,,,0.00,,2013-03-21 20:53:00,
2013-03-21 16:02:00,46.0,15.0,29.95,ENE,59,1.0,5.0,28,0.00,,,0.00,,2013-03-21 21:02:00,
2013-03-21 16:12:00,46.0,15.0,29.95,ENE,59,1.0,5.0,28,0.00,,,0.00,,2013-03-21 21:12:00,
2013-03-21 16:22:00,47.0,16.0,29.94,North,5,4.0,9.0,29,0.00,,,0.00,,2013-03-21 21:22:00,
2013-03-21 16:32:00,47.0,16.0,29.94,NE,53,1.0,11.0,29,0.00,,,0.00,,2013-03-21 21:32:00,
2013-03-21 16:43:00,47.0,16.0,29.94,NE,53,1.0,11.0,29,0.00,,,0.00,,2013-03-21 21:43:00,
2013-03-21 16:53:00,47.0,16.0,29.94,East,89,3.0,8.0,28,0.00,,,0.00,,2013-03-21 21:53:00,
2013-03-21 17:02:00,47.0,16.0,29.94,NNE,23,4.0,8.0,28,0.00,,,0.00,,2013-03-21 22:02:00,
2013-03-21 17:13:00,47.0,16.0,29.94,NNE,23,4.0,8.0,28,0.00,,,0.00,,2013-03-21 22:13:00,
2013-03-21 17:23:00,47.0,16.0,29.93,East,99,1.0,5.0,28,0.00,,,0.00,,2013-03-21 22:23:00,
2013-03-21 17:33:00,47.0,15.0,29.94,ENE,69,1.0,5.0,27,0.00,,,0.00,,2013-03-21 22:33:00,
2013-03-21 17:42:00,47.0,15.0,29.94,ENE,69,1.0,5.0,27,0.00,,,0.00,,2013-03-21 22:42:00,
2013-03-21 17:52:00,46.0,14.0,29.93,East,86,0.0,6.0,27,0.00,,,0.00,,2013-03-21 22:52:00,
2013-03-21 18:02:00,46.0,15.0,29.93,ENE,63,2.0,5.0,28,0.00,,,0.00,,2013-03-21 23:02:00,
2013-03-21 18:12:00,46.0,15.0,29.93,ENE,63,2.0,5.0,28,0.00,,,0.00,,2013-03-21 23:12:00,
2013-03-21 18:22:00,46.0,16.0,29.93,ENE,65,0.0,2.0,30,0.00,,,0.00,,2013-03-21 23:22:00,
2013-03-21 18:32:00,45.0,15.0,29.93,ENE,73,0.0,4.0,29,0.00,,,0.00,,2013-03-21 23:32:00,
2013-03-21 18:42:00,45.0,15.0,29.93,ENE,73,0.0,4.0,29,0.00,,,0.00,,2013-03-21 23:42:00,
2013-03-21 18:53:00,45.0,15.0,29.93,NNE,32,2.0,5.0,30,0.00,,,0.00,,2013-03-21 23:53:00,
2013-03-21 19:02:00,45.0,15.0,29.93,ENE,66,0.0,4.0,30,0.00,,,0.00,,2013-03-22 00:02:00,
2013-03-21 19:12:00,45.0,15.0,29.93,ENE,66,0.0,4.0,30,0.00,,,0.00,,2013-03-22 00:12:00,
2013-03-21 19:22:00,45.0,18.0,29.93,NE,53,0.0,2.0,34,0.00,,,0.00,,2013-03-22 00:22:00,
2013-03-21 19:32:00,45.0,18.0,29.93,NE,38,1.0,3.0,34,0.00,,,0.00,,2013-03-22 00:32:00,
2013-03-21 19:42:00,45.0,18.0,29.93,NE,38,1.0,3.0,34,0.00,,,0.00,,2013-03-22 00:42:00,
2013-03-21 19:52:00,44.0,18.0,29.93,NNE,27,4.0,7.0,35,0.00,,,0.00,,2013-03-22 00:52:00,
2013-03-21 20:02:00,44.0,19.0,29.93,NNE,19,1.0,8.0,37,0.00,,,0.00,,2013-03-22 01:02:00,
2013-03-21 20:12:00,44.0,19.0,29.93,NNE,19,1.0,8.0,37,0.00,,,0.00,,2013-03-22 01:12:00,
2013-03-21 20:22:00,44.0,19.0,29.94,NE,44,2.0,6.0,37,0.00,,,0.00,,2013-03-22 01:22:00,
2013-03-21 20:32:00,44.0,19.0,29.95,NNE,29,4.0,6.0,37,0.00,,,0.00,,2013-03-22 01:32:00,
2013-03-21 20:42:00,44.0,19.0,29.95,NNE,29,4.0,6.0,37,0.00,,,0.00,,2013-03-22 01:42:00,
2013-03-21 20:53:00,44.0,20.0,29.96,NNW,343,0.0,5.0,38,0.00,,,0.00,,2013-03-22 01:53:00,
2013-03-21 21:02:00,44.0,21.0,29.97,NNE,26,0.0,3.0,40,0.00,,,0.00,,2013-03-22 02:02:00,
2013-03-21 21:12:00,44.0,21.0,29.97,NNE,26,0.0,3.0,40,0.00,,,0.00,,2013-03-22 02:12:00,
2013-03-21 21:22:00,44.0,21.0,29.97,ENE,61,0.0,5.0,40,0.00,,,0.00,,2013-03-22 02:22:00,
2013-03-21 21:32:00,43.0,26.0,29.97,NE,44,0.0,7.0,50,0.00,,,0.00,,2013-03-22 02:32:00,
2013-03-21 21:53:00,42.0,28.0,29.99,SE,128,5.0,8.0,58,0.00,,,0.00,,2013-03-22 02:53:00,
2013-03-21 22:02:00,41.0,30.0,30.00,ESE,106,5.0,7.0,64,0.00,,,0.00,,2013-03-22 03:02:00,
2013-03-21 22:12:00,41.0,30.0,30.00,ESE,106,5.0,7.0,64,0.00,,,0.00,,2013-03-22 03:12:00,
2013-03-21 22:22:00,40.0,31.0,29.99,ESE,102,3.0,9.0,69,0.00,,,0.00,,2013-03-22 03:22:00,
2013-03-21 22:33:00,38.0,31.0,29.99,East,101,4.0,11.0,77,0.00,,,0.00,,2013-03-22 03:33:00,
2013-03-21 22:43:00,38.0,31.0,29.99,East,101,4.0,11.0,77,0.00,,,0.00,,2013-03-22 03:43:00,
2013-03-21 22:53:00,37.0,32.0,29.98,East,90,0.0,9.0,82,0.00,,,0.00,,2013-03-22 03:53:00,
2013-03-21 23:03:00,37.0,33.0,30.00,East,98,0.0,5.0,85,0.01,,,0.01,,2013-03-22 04:03:00,
2013-03-21 23:12:00,37.0,33.0,30.00,East,98,0.0,5.0,85,0.01,,,0.01,,2013-03-22 04:12:00,
2013-03-21 23:23:00,36.0,32.0,29.99,East,84,1.0,5.0,86,0.02,,,0.02,,2013-03-22 04:23:00,
2013-03-21 23:32:00,35.0,32.0,29.99,East,89,1.0,4.0,88,0.03,,,0.03,,2013-03-22 04:32:00,
2013-03-21 23:42:00,35.0,32.0,29.99,East,89,1.0,4.0,88,0.03,,,0.03,,2013-03-22 04:42:00,
2013-03-21 23:52:00,35.0,32.0,29.99,East,88,1.0,3.0,89,0.04,,,0.04,,2013-03-22 04:52:00,